Location: Ch�tillon
(48.8024°N, 2.2935°E)
Time: 21:05:09
(UTC+00:00)

UWE-3 - Visible Passes

Search period start: 27 June 2022 00:00
Search period end: 07 July 2022 00:00
Orbit: 581 x 680 km, 97.7° (Epoch: 27 June)

Date Brightness Start Highest point End Pass type
(mag) Time Alt. Az. Time Alt. Az. Time Alt. Az.
27 Jun ? 02:28:10 10° NE 02:31:37 23° E 02:35:07 10° SSE visible
28 Jun ? 02:48:18 10° NNE 02:52:17 36° E 02:56:20 10° SSE visible
30 Jun ? 01:55:13 10° ENE 01:56:30 11° E 01:57:46 10° ESE visible
01 Jul ? 02:14:18 10° NE 02:17:15 18° E 02:20:15 10° SE visible
02 Jul ? 02:34:12 10° NE 02:37:57 27° E 02:41:44 10° SSE visible
03 Jul ? 02:54:25 10° NNE 02:58:34 43° E 03:02:49 10° S visible
05 Jul ? 02:00:38 10° ENE 02:02:49 13° E 02:05:00 10° ESE visible
06 Jul ? 02:20:11 10° NE 02:23:32 21° E 02:26:56 10° SE visible
